KB4SHP Weather Reports


Display with metric or nautical units.
time (UTC)temp
F
wind
direction
speed
MPH
gust
MPH
rain 1hr
in
rain 24hr
in
rain mn
in
humidity
%
barometer
mb
20260906111458 70 112 0.0 0.0 0.00 0.00 0.00 90 1014.7
20260906105957 70 112 0.0 0.0 0.00 0.00 0.00 90 1014.5
20260906104459 71 112 0.0 0.0 0.00 0.00 0.00 89 1014.2
20260906102958 71 113 0.0 0.0 0.00 0.00 0.00 88 1014.0
20260906100000 72 147 0.0 0.0 0.00 0.00 0.00 88 1013.9
20260906094458 72 24 0.0 1.0 0.00 0.00 0.00 89 1013.7
20260906091457 72 29 0.0 0.0 0.00 0.00 0.00 91 1013.4
20260906090000 72 28 0.0 0.0 0.00 0.00 0.00 91 1013.3
20260906082957 72 28 0.0 0.0 0.00 0.00 0.00 91 1013.1
20260906081458 72 28 0.0 0.0 0.00 0.00 0.00 91 1013.1
20260906074458 72 28 0.0 0.0 0.00 0.00 0.00 92 1013.0
20260906072957 71 27 0.0 0.0 0.00 0.00 0.00 93 1013.0
20260906071459 70 26 0.0 0.0 0.00 0.00 0.00 92 1013.1
20260906064456 70 27 0.0 0.0 0.00 0.00 0.00 91 1013.3
20260906061458 71 27 0.0 0.0 0.00 0.00 0.00 91 1013.2
20260906060000 71 27 0.0 0.0 0.00 0.00 0.00 91 1013.4
20260906054458 70 18 0.0 0.0 0.00 0.00 0.00 90 1013.3
20260906051458 71 17 0.0 0.0 0.00 0.00 0.00 91 1013.3
20260906045959 70 18 0.0 0.0 0.00 0.00 0.00 92 1013.4
20260906044459 71 18 0.0 0.0 0.00 0.00 0.00 91 1013.4
20260906042959 71 18 0.0 0.0 0.00 0.00 0.00 91 1013.5
20260906041500 71 19 0.0 0.0 0.00 0.00 0.00 90 1013.5
20260906035959 72 19 0.0 0.0 0.00 0.00 0.00 90 1013.6
20260906032959 73 19 0.0 0.0 0.00 0.00 0.00 88 1013.6
20260906025959 73 18 0.0 0.0 0.00 0.00 0.00 87 1013.5
20260906022958 75 18 0.0 0.0 0.00 0.00 0.00 85 1013.2
20260906014459 76 18 0.0 0.0 0.00 0.00 0.00 83 1012.8
20260906013001 77 18 0.0 0.0 0.00 0.00 0.00 82 1012.6
20260906011501 78 19 0.0 0.0 0.00 0.00 0.00 80 1012.1
20260906010001 76 252 0.0 0.0 0.00 0.00 0.00 83 1012.1
20260906004501 77 252 0.0 0.0 0.00 0.00 0.00 81 1012.0
20260906002959 79 252 0.0 0.0 0.00 0.00 0.00 77 1011.7
20260906001500 80 252 0.0 0.0 0.00 0.00 0.00 75 1011.8
20260906000002 82 252 0.0 0.0 0.00 0.00 0.00 72 1011.6
20260905234500 83 252 0.0 0.0 0.00 0.00 0.00 68 1011.6
20260905233000 84 277 0.0 1.0 0.00 0.00 0.00 66 1011.2
20260905231500 85 235 0.0 1.0 0.00 0.00 0.00 65 1011.1
20260905225958 86 224 0.0 1.0 0.00 0.00 0.00 64 1011.1
20260905224458 88 285 0.0 1.0 0.00 0.00 0.00 63 1011.2
20260905221458 87 202 0.0 0.0 0.00 0.00 0.00 65 1011.2
20260905220002 87 283 0.0 1.0 0.00 0.00 0.00 63 1011.3
20260905214500 87 231 0.0 0.0 0.00 0.00 0.00 63 1011.3
20260905213000 87 226 0.0 0.0 0.00 0.00 0.00 63 1011.3
20260905211459 88 211 0.0 0.0 0.00 0.00 0.00 63 1011.2
20260905205959 88 232 0.0 1.0 0.00 0.00 0.00 62 1011.3
20260905204459 87 221 0.0 1.0 0.00 0.00 0.00 65 1011.1
20260905201459 85 197 0.0 0.0 0.00 0.00 0.00 66 1011.5
20260905194459 84 250 0.0 0.0 0.00 0.00 0.00 68 1011.3
20260905193001 83 238 0.0 0.0 0.00 0.00 0.00 68 1011.1
20260905191501 83 223 0.0 0.0 0.00 0.00 0.00 67 1011.0
20260905190001 84 203 0.0 0.0 0.00 0.00 0.00 64 1011.4
20260905184458 86 247 0.0 0.0 0.00 0.00 0.00 63 1011.7
20260905182959 88 288 0.0 2.0 0.00 0.00 0.00 61 1012.2
20260905181459 89 259 0.0 4.0 0.00 0.00 0.00 61 1012.7
20260905180001 89 11 0.0 4.0 0.00 0.00 0.00 62 1012.4
20260905174458 90 300 0.0 5.0 0.00 0.00 0.00 63 1012.2
20260905172958 90 324 0.0 4.0 0.00 0.00 0.00 61 1012.5
20260905170001 91 36 1.0 7.0 0.00 0.00 0.00 58 1013.1
20260905164459 92 300 0.0 2.0 0.00 0.00 0.00 59 1013.2
20260905162959 91 330 0.0 4.0 0.00 0.00 0.00 58 1013.3
20260905161459 91 298 0.0 2.0 0.00 0.00 0.00 60 1013.4
20260905154459 90 298 0.0 5.0 0.00 0.00 0.00 59 1013.7
20260905151459 87 272 0.0 1.0 0.00 0.00 0.00 69 1014.1
20260905144458 85 284 0.0 0.0 0.00 0.00 0.00 69 1014.2
20260905142959 84 266 0.0 0.0 0.00 0.00 0.00 70 1014.1
20260905141459 83 231 0.0 2.0 0.00 0.00 0.00 73 1014.1
20260905134459 79 129 0.0 0.0 0.00 0.00 0.00 82 1014.1
20260905133000 77 122 0.0 0.0 0.00 0.00 0.00 85 1014.0
20260905130001 74 105 0.0 0.0 0.00 0.00 0.00 89 1014.0
20260905124458 73 108 0.0 0.0 0.00 0.00 0.00 90 1014.2
20260905123000 71 288 0.0 0.0 0.00 0.00 0.00 92 1014.1
20260905121457 70 292 0.0 0.0 0.00 0.00 0.00 93 1014.1
20260905120000 69 291 0.0 0.0 0.00 0.00 0.00 93 1014.0
20260905114458 68 291 0.0 0.0 0.00 0.00 0.00 93 1013.8
20260905112958 68 291 0.0 0.0 0.00 0.00 0.00 93 1013.7